[[{"header":{"parameterUnit":"m.s-1","parameterCategory":1,"la1":30.2991,"la2":30.254,"lo1":-89.0895,"lo2":-89.0444,"dy":0.0017,"dx":0.0017,"nx":28,"ny":28,"refTime":"2025-07-14T03:00:00:Z","depth":0,"parameterNumber":2,"parameterNumberName":"U-component_of_WINDS"},"data":[0,0,0,0,0,0,0,0,0,0,0,0,0,0,0,0,0,0,0,0,0,0,0,0,0,0,0,0,0,0,0,0,0,0,0,0,0,0,0,0,0,0,0,0,0,0,0,0,0,0,0,0,0,0,0,0,0,0,1.8359,1.836,0,1.8392,1.8392,1.8393,1.84,1.84,1.84,1.8399,1.8431,1.8432,1.8433,0,0,0,0,0,0,0,0,0,0,0,0,0,1.8303,1.8304,1.8359,1.836,1.836,1.8392,1.8392,1.8393,1.84,1.84,1.8399,1.8399,1.8431,1.8432,1.8433,0,0,0,0,0,0,0,0,0,0,0,0,0,1.8331,1.8305,1.8359,1.8368,1.8369,1.8392,1.8392,1.8393,1.84,1.84,1.8399,1.8399,1.8431,1.8432,1.8434,1.845,0,0,1.8439,1.8439,0,0,0,0,0,0,0,0,1.8329,1.8333,1.8366,1.8367,1.8368,1.8392,1.8384,1.8412,1.84,1.8388,1.8399,1.8399,1.8418,1.8421,1.8428,1.8452,1.8453,1.8439,1.844,1.844,1.8441,0,0,0,0,0,0,0,1.8327,1.8332,1.8372,1.8366,1.8368,1.837,1.8373,1.839,1.8405,1.8389,1.839,1.8394,1.8419,1.8426,1.8428,1.8454,1.8439,1.844,1.8441,1.8442,1.8495,1.8496,0,0,0,0,0,0,1.8324,1.833,1.8371,1.8373,1.8348,1.8371,1.8375,1.8384,1.8405,1.8407,1.8394,1.8394,1.8424,1.8427,1.843,1.8452,1.844,1.8442,1.8443,1.8495,1.8496,1.8496,0,0,0,0,0,0,1.8323,1.8328,1.837,1.8352,1.8357,1.8372,1.8383,1.8385,1.8393,1.8408,1.8411,1.8399,1.8423,1.8427,1.8446,1.8453,1.8443,1.8444,1.8494,1.8495,1.8496,1.8495,0,0,0,0,0,0,1.8321,1.8327,1.8333,1.8352,1.8358,1.8385,1.8383,1.8386,1.8396,1.8396,1.8413,1.8416,1.8423,1.8443,1.8447,1.8455,1.8445,1.8494,1.8495,1.8496,1.8495,1.8496,1.8497,0,0,0,0,0,1.8319,1.8331,1.8334,1.8339,1.8367,1.8386,1.8389,1.8398,1.8396,1.8403,1.8413,1.8415,1.8452,1.8445,1.845,1.8458,1.8493,1.8494,1.8496,1.8494,1.8496,1.8497,0,0,0,0,0,0,1.8312,1.8334,1.8337,1.8355,1.8369,1.8387,1.8395,1.8399,1.8413,1.8413,1.8423,1.8427,1.8445,1.8453,1.8446,1.8476,1.8472,1.8474,1.847,1.8471,1.8472,1.847,1.8447,0,0,0,0,0,1.8313,1.8327,1.8345,1.836,1.8366,1.838,1.8388,1.8395,1.8409,1.8414,1.8426,1.8439,1.8454,1.8463,1.8477,1.8496,1.8501,1.8504,1.8505,1.8506,1.8508,1.852,1.8522,1.85,1.85,1.85,0,0,1.8314,1.8328,1.8336,1.8359,1.837,1.8384,1.8384,1.8399,1.841,1.8416,1.8435,1.8444,1.846,1.8479,1.8488,1.8486,1.8515,1.8508,1.8508,1.8509,1.8521,1.8523,1.8525,1.85,1.85,1.85,0,0,1.8324,1.8336,1.835,1.8362,1.8379,1.8388,1.8392,1.841,1.8417,1.8436,1.8441,1.8454,1.8479,1.8491,1.85,1.8517,1.852,1.8521,1.8526,1.8538,1.854,1.8542,1.8548,1.8551,1.8523,1.8523,1.8523,0,1.8324,1.8346,1.8357,1.8372,1.8382,1.839,1.8405,1.8415,1.8436,1.8443,1.8441,1.8474,1.8485,1.8508,1.8512,1.8519,1.8524,1.8519,1.8539,1.8541,1.8542,1.8549,1.8551,1.8523,1.8523,1.8523,1.8523,0,1.8345,1.836,1.837,1.8391,1.8402,1.8417,1.8431,1.8441,1.8447,1.8456,1.8476,1.849,1.8508,1.8514,1.8519,1.8538,1.8537,1.8537,1.8533,1.8544,1.8551,1.8553,1.8523,1.8523,1.8523,1.8523,0,0,1.835,1.8378,1.8382,1.8392,1.8413,1.8425,1.8441,1.846,1.8469,1.8483,1.8497,1.8519,1.852,1.8531,1.8537,1.8548,1.8562,1.8547,1.8547,1.855,1.8585,1.8584,1.8587,1.8564,1.8565,1.8565,1.8584,0,1.8362,1.8391,1.8403,1.8426,1.8441,1.845,1.8464,1.8478,1.8488,1.8503,1.8514,1.8529,1.8529,1.8536,1.8546,1.8558,1.8569,1.8557,1.8577,1.8578,1.8573,1.859,1.859,1.8606,1.8586,1.8586,1.8587,0,1.8381,1.8397,1.8423,1.8444,1.845,1.8463,1.8482,1.8495,1.8512,1.8519,1.8532,1.8538,1.8556,1.8552,1.8577,1.8568,1.8578,1.8585,1.8586,1.8588,1.8583,1.8593,1.8612,1.8614,1.8591,1.859,1.859,0,1.8383,1.8411,1.843,1.8439,1.8464,1.8472,1.8483,1.85,1.8511,1.8528,1.8535,1.8553,1.8563,1.8577,1.8589,1.8585,1.8613,1.8609,1.8619,1.8619,1.8624,1.8623,1.8645,1.863,1.863,1.863,1.863,0,1.8396,1.8411,1.8432,1.8444,1.8462,1.8475,1.8492,1.8503,1.8519,1.8533,1.8542,1.8555,1.857,1.8585,1.8594,1.8614,1.8618,1.8625,1.8627,1.8624,1.8623,1.863,1.8629,1.8631,1.8631,1.863,1.863,0,1.84,1.8415,1.8437,1.8459,1.8465,1.8477,1.8496,1.8509,1.852,1.8538,1.8543,1.8561,1.858,1.8593,1.8617,1.8623,1.8645,1.8647,1.8639,1.864,1.8649,1.8648,1.8675,1.868,1.8662,1.8662,1.8662,0,1.8408,1.842,1.8444,1.8455,1.8466,1.8483,1.8495,1.8509,1.8521,1.8543,1.8553,1.8572,1.8589,1.8619,1.8633,1.8652,1.8655,1.8663,1.8658,1.8655,1.8656,1.8655,1.8657,1.8664,1.8664,1.8664,1.8664,0,1.8419,1.8427,1.8444,1.8464,1.8478,1.8494,1.8511,1.8519,1.8536,1.8549,1.8569,1.8582,1.8608,1.8628,1.8648,1.8659,1.8665,1.8666,1.8669,1.8666,1.8662,1.8665,1.8641,1.8665,1.8665,1.8665,1.8665,1.8665,1.8426,1.8438,1.8458,1.8477,1.8491,1.8507,1.852,1.8533,1.855,1.8573,1.858,1.8601,1.862,1.8648,1.866,1.8677,1.8676,1.8681,1.8682,1.8683,1.8683,1.8659,1.8681,1.8681,1.8681,1.8681,1.8681,0,1.8439,1.8452,1.847,1.8493,1.8509,1.8514,1.8533,1.8545,1.8564,1.8581,1.8598,1.8622,1.8642,1.8659,1.8679,1.869,1.8693,1.8695,1.8694,1.8697,1.8682,1.8678,1.8692,1.8692,1.8692,1.8692,1.8692,1.8692,1.8447,1.8468,1.8478,1.8506,1.852,1.8541,1.8552,1.8567,1.8581,1.8607,1.8624,1.8635,1.8653,1.8676,1.8694,1.8699,1.8706,1.8707,1.8713,1.8699,1.8697,1.8696,1.8692,1.8709,1.8709,1.8726,1.8726,1.8726]},{"header":{"parameterUnit":"m.s-1","parameterCategory":1,"la1":30.2991,"la2":30.254,"lo1":-89.0895,"lo2":-89.0444,"dy":0.0017,"dx":0.0017,"nx":28,"ny":28,"refTime":"2025-07-14T03:00:00:Z","depth":0,"parameterNumber":3,"parameterNumberName":"V-component_of_WINDS"},"data":[0,0,0,0,0,0,0,0,0,0,0,0,0,0,0,0,0,0,0,0,0,0,0,0,0,0,0,0,0,0,0,0,0,0,0,0,0,0,0,0,0,0,0,0,0,0,0,0,0,0,0,0,0,0,0,0,0,0,-1.7498,-1.7499,0,-1.7573,-1.7573,-1.7574,-1.7602,-1.7602,-1.7602,-1.7602,-1.7677,-1.7679,-1.7681,0,0,0,0,0,0,0,0,0,0,0,0,0,-1.7381,-1.7383,-1.7498,-1.7499,-1.75,-1.7572,-1.7574,-1.7575,-1.7602,-1.7602,-1.7602,-1.7602,-1.7676,-1.7679,-1.7681,0,0,0,0,0,0,0,0,0,0,0,0,0,-1.7441,-1.7383,-1.7498,-1.7523,-1.7526,-1.7572,-1.7574,-1.7575,-1.7603,-1.7602,-1.7602,-1.7602,-1.7675,-1.7678,-1.7682,-1.7709,0,0,-1.7692,-1.7693,0,0,0,0,0,0,0,0,-1.7437,-1.7445,-1.7518,-1.7521,-1.7525,-1.7578,-1.756,-1.762,-1.7603,-1.7573,-1.7602,-1.7601,-1.7644,-1.765,-1.7665,-1.7712,-1.7715,-1.7692,-1.7694,-1.7695,-1.7696,0,0,0,0,0,0,0,-1.7433,-1.7442,-1.7528,-1.7519,-1.7523,-1.753,-1.7538,-1.7571,-1.761,-1.7576,-1.7578,-1.7587,-1.7646,-1.7661,-1.7667,-1.7717,-1.7692,-1.7695,-1.7697,-1.7698,-1.7792,-1.7793,0,0,0,0,0,0,-1.7425,-1.7438,-1.7525,-1.753,-1.7479,-1.7533,-1.7542,-1.7561,-1.7609,-1.7616,-1.7587,-1.7588,-1.7656,-1.7663,-1.7669,-1.7706,-1.7695,-1.7699,-1.77,-1.7792,-1.7792,-1.7793,0,0,0,0,0,0,-1.7422,-1.7432,-1.7522,-1.7485,-1.7497,-1.7535,-1.7556,-1.7563,-1.7578,-1.7618,-1.7625,-1.7596,-1.7656,-1.7665,-1.7699,-1.7708,-1.77,-1.7703,-1.7791,-1.7792,-1.7793,-1.7777,0,0,0,0,0,0,-1.7419,-1.7431,-1.7442,-1.7485,-1.7499,-1.7551,-1.7557,-1.7564,-1.7584,-1.7586,-1.7628,-1.7634,-1.7656,-1.7694,-1.7703,-1.7713,-1.7706,-1.779,-1.7791,-1.7792,-1.7777,-1.7777,-1.7778,0,0,0,0,0,-1.7415,-1.7434,-1.7442,-1.7453,-1.7513,-1.7551,-1.7559,-1.7584,-1.7585,-1.7596,-1.7621,-1.7633,-1.7706,-1.7697,-1.7707,-1.7719,-1.779,-1.7791,-1.7792,-1.7777,-1.7777,-1.7778,0,0,0,0,0,0,-1.739,-1.744,-1.745,-1.7484,-1.7513,-1.7556,-1.7571,-1.7584,-1.7613,-1.7614,-1.7643,-1.7653,-1.7685,-1.7705,-1.7695,-1.7748,-1.7749,-1.7752,-1.7734,-1.7735,-1.7735,-1.773,-1.7708,0,0,0,0,0,-1.7389,-1.7416,-1.7458,-1.7484,-1.7498,-1.7532,-1.755,-1.7567,-1.7598,-1.7611,-1.7639,-1.7669,-1.7699,-1.7718,-1.7747,-1.778,-1.779,-1.7793,-1.7793,-1.7793,-1.7796,-1.7816,-1.7818,-1.7797,-1.7797,-1.7797,0,0,-1.7386,-1.7417,-1.7432,-1.748,-1.7505,-1.7533,-1.7542,-1.7571,-1.7592,-1.7615,-1.765,-1.7671,-1.7707,-1.7741,-1.7758,-1.7759,-1.7804,-1.7795,-1.7794,-1.7797,-1.7818,-1.782,-1.7821,-1.7797,-1.7797,-1.7797,0,0,-1.7396,-1.7421,-1.7446,-1.7472,-1.7509,-1.7532,-1.7538,-1.7579,-1.7595,-1.763,-1.7649,-1.7674,-1.7725,-1.775,-1.7769,-1.779,-1.7803,-1.7799,-1.7801,-1.782,-1.7822,-1.7824,-1.7832,-1.7835,-1.7801,-1.7801,-1.7801,0,-1.7387,-1.743,-1.7457,-1.7486,-1.7507,-1.753,-1.7556,-1.7579,-1.7624,-1.7638,-1.7639,-1.7704,-1.773,-1.7771,-1.7777,-1.7791,-1.7799,-1.7794,-1.782,-1.7821,-1.7823,-1.7832,-1.7835,-1.7801,-1.7801,-1.7801,-1.7801,0,-1.7419,-1.7449,-1.7464,-1.7509,-1.7532,-1.7558,-1.759,-1.761,-1.7625,-1.7648,-1.7684,-1.7716,-1.7753,-1.7764,-1.7779,-1.7808,-1.7808,-1.7814,-1.7815,-1.7824,-1.7833,-1.7837,-1.78,-1.78,-1.78,-1.78,0,0,-1.7414,-1.7475,-1.748,-1.7501,-1.7546,-1.7569,-1.7598,-1.7635,-1.7652,-1.7682,-1.7708,-1.7751,-1.7757,-1.7779,-1.7797,-1.7814,-1.7831,-1.7818,-1.782,-1.782,-1.7866,-1.7862,-1.7865,-1.7839,-1.784,-1.784,-1.7864,0,-1.743,-1.7483,-1.7509,-1.755,-1.7579,-1.7602,-1.7627,-1.7657,-1.7679,-1.7706,-1.7731,-1.7761,-1.7767,-1.778,-1.7798,-1.7825,-1.784,-1.7823,-1.7863,-1.7864,-1.7854,-1.787,-1.7865,-1.7886,-1.7867,-1.7868,-1.7868,0,-1.7456,-1.7488,-1.7532,-1.7575,-1.7588,-1.761,-1.7647,-1.7673,-1.7708,-1.7723,-1.7748,-1.7766,-1.7798,-1.7797,-1.7841,-1.7829,-1.7847,-1.7863,-1.7864,-1.7869,-1.7867,-1.7876,-1.7893,-1.7896,-1.7874,-1.7873,-1.7873,0,-1.7449,-1.7503,-1.7537,-1.7555,-1.7605,-1.762,-1.7642,-1.7677,-1.7698,-1.773,-1.7745,-1.778,-1.7799,-1.7826,-1.7853,-1.785,-1.7896,-1.7896,-1.791,-1.7909,-1.7918,-1.7918,-1.7939,-1.7929,-1.7929,-1.7929,-1.7928,0,-1.7465,-1.7491,-1.7535,-1.7556,-1.7587,-1.7617,-1.7647,-1.767,-1.7701,-1.7727,-1.7749,-1.7773,-1.7808,-1.7836,-1.7858,-1.7892,-1.79,-1.7914,-1.7919,-1.7912,-1.7911,-1.7925,-1.7924,-1.7929,-1.7929,-1.7929,-1.7929,0,-1.7462,-1.7493,-1.7532,-1.7577,-1.7589,-1.761,-1.7649,-1.767,-1.7694,-1.7727,-1.7737,-1.7774,-1.7809,-1.7839,-1.7885,-1.7899,-1.7935,-1.7941,-1.7923,-1.7927,-1.7938,-1.7937,-1.797,-1.7977,-1.7961,-1.7961,-1.7961,0,-1.747,-1.7492,-1.754,-1.7559,-1.7581,-1.7612,-1.7634,-1.7665,-1.7687,-1.773,-1.7746,-1.7783,-1.7814,-1.787,-1.7901,-1.7936,-1.7944,-1.7953,-1.795,-1.7942,-1.7946,-1.7944,-1.7947,-1.7953,-1.7953,-1.7953,-1.7953,0,-1.7482,-1.7497,-1.7528,-1.7565,-1.7592,-1.7622,-1.7653,-1.7668,-1.7705,-1.7729,-1.7766,-1.779,-1.7838,-1.7874,-1.7914,-1.7936,-1.7951,-1.7955,-1.796,-1.7953,-1.7942,-1.795,-1.7925,-1.7954,-1.7954,-1.7954,-1.7954,-1.7954,-1.7486,-1.7506,-1.7544,-1.7579,-1.7606,-1.7635,-1.7658,-1.7686,-1.7717,-1.7759,-1.7775,-1.7813,-1.7849,-1.7904,-1.7926,-1.7957,-1.7959,-1.7966,-1.7968,-1.7969,-1.7969,-1.7937,-1.7964,-1.7964,-1.7964,-1.7964,-1.7964,0,-1.7499,-1.7525,-1.7557,-1.7601,-1.7629,-1.7641,-1.7677,-1.7699,-1.7732,-1.7765,-1.7796,-1.7839,-1.7875,-1.791,-1.7948,-1.7966,-1.7974,-1.7975,-1.7974,-1.7979,-1.7964,-1.7956,-1.7968,-1.7968,-1.7968,-1.7968,-1.7968,-1.7968,-1.7509,-1.7546,-1.7565,-1.7615,-1.7641,-1.7679,-1.7698,-1.7726,-1.7752,-1.7799,-1.783,-1.7853,-1.7887,-1.7928,-1.7962,-1.7972,-1.7985,-1.7984,-1.7996,-1.7981,-1.798,-1.7979,-1.7972,-1.7987,-1.7987,-1.8008,-1.8009,-1.8009]}]]